ONEWEB-0429 (50500 NORAD) Tracking and Keplerian Element Data

This shows tracking and keplerian element data for the satellite.

Feedback or suggestion? Click here.




ElementValue
Catalog50500
NameONEWEB-0429
Epoch Orbit130
Epoch Day140.58334491
Epoch Year2022
RAAN305.1294
Inclination87.214
Eccentricity0.0003389
Argument of Perigee136.2045
Mean Anonmoly168.1553
Mean Motion14.92439989
Decay Rate-0.00055911
L11 50500U 21132AH 22140.58334491 -.00055911 00000+0 -55112-2 0 9993
L22 50500 87.2140 305.1294 0003389 136.2045 168.1553 14.92439989 1303

Live tracking and technical data element details for ONEWEB-0429 (NORAD 50500). ONEWEB-0429 can be tracked NOW for your location showing map with azimuth and elevation plus other details from your city location.

Track the satellite on the map from your city or location and see movement details for azimuth, elevation, latitude, longitude, range, height, and movement on the map or in text.







IsCatalogInMostPopularTable: catalog: 50500, numindb: 29
Update: records affected: 1



GetName: 50500 ONEWEB-0429

Hit Count: updated at: Mon, 23 May 2022 21:08:56 GMT